Wind_Speed
55 55 55 54 53 52 52 51 50 50 49 48 47 47 46 44 43 42 42 43 44 46 46 48 49 52 54 56 58 60 62 64 65 65 67 68 69 70 71 72 74 75 77
51 52 53 52 52 51 50 49 49 48 47 46 45 45 43 42 42 41 42 43 45 46 47 49 52 54 57 59 61 63 65 67 68 68 69 70 71 73 75 76 78 80 83
47 48 49 49 49 48 46 46 47 45 44 43 43 42 41 40 40 41 42 44 45 48 49 52 55 57 60 62 64 65 67 68 70 71 71 72 74 77 78 80 83 86 90
40 41 44 45 45 44 43 42 42 41 40 39 39 38 37 37 38 41 42 44 47 49 52 56 58 60 62 64 65 67 68 70 71 73 74 75 77 80 83 84 86 88 89
33 35 38 39 40 39 38 37 37 36 35 35 35 35 34 36 38 41 44 46 48 51 55 59 61 62 64 66 67 69 70 72 73 75 76 78 80 83 85 87 87 85 82
26 29 32 34 34 35 34 33 32 31 30 30 30 30 32 35 38 41 44 48 51 55 58 60 62 64 66 67 69 71 72 74 76 78 79 81 83 86 87 86 83 78 71
20 23 26 27 28 29 29 27 26 25 26 27 28 29 33 37 40 44 47 50 53 56 59 61 63 65 67 68 70 71 74 76 79 81 82 84 86 86 84 79 74 67 60
19 20 22 24 25 25 24 24 23 23 25 27 29 31 35 39 42 46 49 52 55 58 60 62 64 66 68 69 70 72 75 77 80 82 84 84 83 79 74 68 61 54 49
19 20 21 22 22 21 20 20 21 22 23 26 29 33 36 40 44 47 50 53 55 58 60 63 65 66 68 69 71 74 76 79 81 83 82 79 75 69 64 57 51 47 44
17 17 18 18 18 17 17 19 20 22 24 27 31 35 38 41 45 48 50 53 56 58 61 62 65 67 69 72 74 76 78 79 78 76 73 69 64 57 52 49 46 45 45
14 14 15 14 13 13 14 17 20 23 26 29 33 36 39 42 45 49 51 54 56 57 60 62 65 68 72 75 77 77 77 76 72 67 62 56 51 48 46 45 46 46 46
11 11 10 11 12 14 16 18 21 24 27 30 34 37 40 43 46 49 52 54 56 58 61 64 68 71 74 76 76 76 73 68 61 55 49 45 43 43 43 45 46 47 47
7 7 8 9 11 13 16 18 21 25 28 31 34 38 41 44 47 49 52 54 57 60 63 67 71 73 74 74 73 68 61 54 48 43 41 40 41 42 43 44 45 45 45
3 4 6 9 11 14 17 20 23 26 29 33 36 39 42 44 46 49 53 56 59 63 67 70 72 72 72 68 62 54 47 41 38 37 38 39 40 42 44 44 43 42 40
4 7 9 11 14 17 20 23 25 29 31 34 37 39 41 44 47 51 54 58 62 66 68 70 70 67 62 55 47 40 36 35 35 36 37 39 40 42 42 42 41 39 36
8 11 13 15 18 20 23 25 28 30 32 34 37 40 42 46 49 53 57 61 65 66 66 66 62 56 48 42 36 33 32 33 34 36 37 38 39 39 39 38 37 35 32
12 14 17 19 21 23 25 27 29 31 33 35 38 41 45 48 52 56 60 63 64 63 61 57 50 44 38 32 29 29 30 32 34 35 36 37 37 37 36 34 33 31 29
16 18 20 22 23 25 27 28 30 32 35 37 40 44 48 51 55 59 61 61 59 56 51 46 40 35 29 26 26 28 30 32 33 35 35 36 35 34 33 31 29 27 25
20 21 22 23 25 26 28 29 31 34 36 39 43 47 51 54 57 59 59 55 51 47 42 38 33 28 24 24 26 28 30 32 33 34 34 34 33 31 30 28 26 25 23
22 23 23 25 26 27 29 31 33 35 38 42 46 49 53 56 57 56 53 48 44 40 36 32 27 23 22 23 25 28 30 31 33 33 32 32 31 29 28 26 25 24 22
23 23 25 26 27 29 31 33 35 38 41 45 48 51 54 55 55 51 47 42 39 35 31 27 23 21 22 23 25 28 29 31 32 31 30 30 29 28 27 25 24 23 22
23 25 26 27 28 30 32 35 37 40 44 47 49 53 54 54 51 46 42 38 35 31 27 23 21 21 22 23 25 27 28 30 31 30 29 28 28 27 26 24 23 22 21
25 26 27 28 30 32 34 37 39 43 46 48 51 54 54 51 47 42 38 35 31 27 24 21 20 21 22 24 25 26 28 29 29 29 28 27 26 25 24 23 22 21 21
25 27 28 29 31 34 36 38 42 45 47 50 53 54 51 48 43 38 34 30 26 23 21 20 20 21 23 24 25 26 27 28 28 28 27 26 25 24 23 22 22 21 21
26 28 29 31 33 35 38 40 44 47 49 52 54 52 48 44 39 34 30 26 23 21 20 20 20 22 23 24 25 26 26 27 27 27 26 26 25 24 23 22 21 21 20
27 29 30 32 34 37 39 42 46 48 51 53 52 49 45 40 34 30 26 23 21 19 19 19 21 22 23 24 25 25 25 25 25 25 26 25 24 23 22 21 20 19 19
Wind_Direction
251 248 246 245 245 245 245 244 244 245 246 249 251 254 258 262 266 270 273 278 282 285 287 290 292 292 293 293 294 295 296 296 297 297 297 297 297 297 297 296 296 295 295
248 244 242 241 240 241 241 241 241 242 244 247 250 253 257 261 266 270 274 278 282 285 288 290 291 292 293 294 295 295 296 297 297 298 298 298 298 297 297 297 297 297 297
243 239 237 236 236 236 236 237 238 239 242 245 249 253 257 262 266 270 275 279 282 285 288 290 291 293 293 294 295 296 297 298 298 298 298 298 298 298 298 298 299 299 298
237 234 232 231 230 230 231 233 235 237 240 244 249 253 258 263 268 272 277 280 283 286 288 290 291 293 294 295 296 297 298 298 299 299 299 299 299 299 299 299 300 300 299
229 227 225 223 223 224 226 229 232 235 239 244 249 255 261 266 271 275 278 281 283 285 288 290 291 293 295 296 297 298 299 299 299 299 300 300 300 300 300 301 300 300 300
217 215 215 217 217 218 221 225 228 233 240 245 251 258 265 269 273 277 280 282 284 286 289 291 293 295 297 298 299 300 300 300 300 301 301 301 301 301 301 302 301 301 299
195 199 203 206 208 211 213 219 225 231 239 246 253 259 266 271 276 279 280 283 286 289 291 293 295 297 299 300 301 301 302 302 302 302 302 302 302 302 302 302 302 301 299
177 181 186 192 198 204 209 216 223 232 242 249 255 261 268 274 278 282 284 287 290 292 294 296 298 299 300 301 302 302 303 303 303 304 304 305 305 304 304 304 302 300 298
161 168 175 183 189 196 205 216 226 236 246 256 264 269 274 279 282 285 288 290 293 296 297 299 300 301 302 303 303 304 304 305 305 306 306 305 305 305 304 303 301 299 298
153 163 173 179 186 198 212 224 237 247 256 262 269 275 278 282 286 289 292 295 298 299 301 302 303 304 304 304 305 305 305 306 306 306 306 307 307 306 305 304 303 301 300
149 159 168 179 193 211 226 237 247 256 263 270 275 279 284 288 292 295 297 299 301 302 303 304 305 305 305 305 306 306 307 307 307 307 307 307 307 307 307 307 307 306 305
154 167 181 200 217 229 243 255 263 270 274 279 283 287 291 294 297 299 301 303 304 305 305 306 306 307 307 307 307 308 309 309 309 309 309 309 309 310 311 311 310 310 308
173 192 211 231 247 255 261 270 276 280 284 288 292 295 298 300 301 303 305 306 307 307 307 308 308 308 308 309 309 310 311 312 312 312 312 312 313 313 313 312 312 311 310
218 242 257 265 271 276 281 285 288 291 294 297 299 301 303 304 305 307 308 309 309 310 310 310 310 310 310 311 312 313 314 315 315 315 315 316 315 315 315 315 314 313 312
288 287 288 289 291 292 294 296 297 299 301 303 304 306 307 308 308 309 310 311 312 312 312 311 312 313 314 315 315 316 318 320 320 320 320 320 320 319 319 318 318 317 315
302 302 302 302 301 301 301 302 303 304 305 306 308 309 310 310 311 312 314 314 314 314 313 314 315 316 317 318 318 320 322 324 325 325 324 324 324 324 324 323 323 323 321
307 307 306 306 306 306 306 307 307 308 309 310 311 312 312 313 314 315 316 316 316 316 316 318 319 320 320 320 321 323 325 327 328 328 329 329 329 329 329 329 329 329 328
307 308 309 308 309 309 310 310 310 311 312 313 314 315 315 316 317 317 318 318 318 319 321 322 323 323 323 323 325 327 329 331 332 332 333 334 335 335 336 336 336 337 338
308 309 310 310 311 311 311 311 312 313 314 315 316 317 317 318 319 320 320 320 321 323 325 326 326 326 326 328 329 331 333 334 336 337 338 339 341 342 343 344 345 346 346
309 310 310 311 311 312 312 312 313 314 316 317 318 319 320 321 322 322 322 322 324 326 327 328 329 328 329 331 333 335 336 337 339 341 342 344 345 347 348 350 351 351 351
308 309 310 311 311 312 313 314 315 316 318 319 320 321 322 323 323 323 323 324 326 327 329 330 329 329 330 333 335 337 339 340 342 343 345 346 348 349 351 351 352 353 354
307 309 310 311 311 313 314 315 316 318 319 320 321 322 323 324 324 323 324 325 326 327 328 328 328 330 332 335 337 339 341 342 344 345 346 347 349 349 351 352 354 355 356
307 309 310 311 312 313 315 316 318 319 321 321 322 324 324 324 324 323 323 324 325 326 327 328 329 331 334 336 338 340 342 343 345 347 348 348 348 350 352 353 355 356 356
307 309 310 311 312 314 316 317 319 321 321 322 323 324 324 324 323 322 322 324 325 325 327 328 330 332 333 336 338 340 342 344 346 348 349 350 350 351 353 354 355 356 357
308 309 310 311 313 315 317 319 320 321 322 323 324 325 324 323 322 321 321 323 323 324 326 328 330 332 333 334 337 339 342 344 347 349 350 351 352 353 354 356 357 358 1
308 309 311 312 314 316 318 320 321 323 324 325 325 325 324 323 321 320 320 321 322 323 324 327 329 331 332 334 336 338 341 344 346 349 351 352 353 354 356 357 359 1 4
Height
5629 5634 5639 5643 5647 5651 5656 5661 5666 5670 5674 5677 5680 5682 5684 5685 5685 5684 5683 5682 5680 5678 5674 5671 5666 5662 5657 5651 5646 5640 5634 5628 5623 5618 5610 5602 5595 5588 5581 5574 5566 5559 5551
5611 5616 5622 5628 5633 5638 5643 5649 5654 5659 5663 5667 5670 5673 5675 5676 5676 5675 5674 5672 5670 5667 5663 5659 5654 5649 5644 5638 5632 5626 5619 5613 5606 5601 5593 5585 5576 5568 5561 5553 5545 5536 5526
5594 5600 5607 5614 5620 5627 5632 5638 5644 5650 5654 5658 5661 5664 5666 5667 5666 5666 5664 5662 5659 5656 5652 5647 5642 5636 5630 5624 5618 5611 5604 5596 5589 5582 5575 5567 5558 5548 5540 5532 5522 5511 5499
5581 5588 5595 5603 5610 5617 5624 5630 5636 5642 5646 5650 5654 5656 5658 5658 5658 5657 5654 5651 5648 5644 5640 5634 5629 5623 5616 5610 5603 5595 5587 5579 5571 5563 5556 5547 5538 5527 5518 5510 5501 5488 5475
5571 5578 5586 5594 5602 5609 5617 5623 5630 5635 5640 5643 5646 5648 5649 5649 5648 5647 5644 5641 5637 5632 5627 5621 5615 5609 5602 5594 5587 5579 5571 5562 5553 5545 5537 5527 5517 5506 5496 5485 5476 5466 5453
5566 5573 5581 5589 5597 5605 5612 5619 5624 5629 5634 5637 5639 5641 5641 5640 5639 5637 5634 5630 5625 5620 5614 5608 5601 5594 5587 5579 5570 5561 5552 5542 5533 5525 5516 5505 5494 5483 5473 5461 5451 5443 5434
5565 5571 5579 5586 5594 5602 5609 5615 5620 5625 5628 5631 5632 5633 5633 5631 5629 5627 5623 5619 5613 5607 5601 5595 5588 5579 5571 5563 5554 5544 5534 5522 5512 5503 5493 5482 5471 5460 5450 5440 5429 5420 5412
5566 5572 5579 5586 5594 5601 5606 5612 5616 5620 5623 5624 5625 5625 5624 5623 5620 5617 5612 5607 5601 5594 5588 5581 5573 5564 5555 5547 5538 5528 5516 5504 5493 5481 5471 5459 5447 5436 5426 5418 5410 5403 5396
5570 5576 5581 5587 5594 5600 5605 5609 5612 5615 5617 5618 5618 5617 5616 5613 5610 5606 5601 5595 5588 5581 5574 5566 5558 5549 5540 5530 5521 5511 5499 5485 5472 5459 5447 5436 5426 5416 5407 5400 5393 5387 5383
5576 5580 5584 5589 5594 5599 5603 5606 5608 5610 5611 5611 5611 5609 5607 5604 5600 5595 5589 5583 5576 5568 5560 5551 5542 5532 5522 5511 5501 5491 5480 5467 5454 5440 5428 5416 5407 5398 5390 5384 5378 5372 5367
5581 5585 5588 5592 5595 5598 5601 5603 5605 5605 5605 5605 5603 5601 5597 5593 5589 5583 5577 5570 5563 5555 5546 5536 5526 5516 5505 5494 5482 5471 5459 5448 5436 5424 5413 5403 5394 5385 5378 5370 5364 5357 5351
5585 5588 5591 5593 5595 5597 5599 5600 5600 5600 5599 5597 5595 5591 5587 5583 5577 5571 5564 5557 5549 5541 5532 5522 5511 5500 5488 5475 5463 5451 5440 5429 5419 5409 5400 5391 5383 5375 5367 5360 5352 5344 5337
5589 5591 5592 5594 5595 5595 5596 5596 5595 5594 5592 5589 5586 5582 5577 5572 5566 5559 5552 5544 5535 5527 5517 5506 5494 5482 5470 5457 5445 5434 5423 5414 5405 5397 5389 5382 5374 5366 5358 5350 5342 5334 5326
5591 5591 5592 5592 5592 5592 5592 5591 5589 5587 5584 5581 5577 5572 5567 5561 5555 5548 5540 5531 5522 5512 5501 5489 5476 5464 5452 5440 5429 5419 5411 5403 5396 5389 5381 5373 5365 5357 5348 5340 5333 5325 5318
5590 5590 5590 5590 5589 5588 5587 5585 5583 5580 5576 5572 5568 5563 5557 5551 5544 5537 5528 5519 5509 5497 5485 5472 5459 5447 5435 5425 5416 5409 5402 5395 5388 5381 5373 5366 5357 5348 5339 5331 5323 5315 5309
5589 5588 5587 5586 5585 5583 5581 5579 5575 5572 5568 5564 5559 5554 5548 5541 5534 5525 5515 5505 5493 5481 5468 5456 5444 5433 5424 5415 5408 5402 5396 5389 5382 5374 5366 5358 5350 5341 5333 5324 5315 5308 5301
5587 5586 5584 5582 5580 5578 5575 5572 5568 5565 5560 5556 5551 5545 5538 5531 5522 5512 5502 5490 5478 5466 5453 5442 5432 5423 5416 5409 5403 5397 5391 5384 5377 5369 5360 5352 5343 5335 5326 5318 5310 5303 5296
5583 5582 5579 5577 5574 5571 5568 5565 5561 5557 5553 5547 5542 5535 5527 5519 5510 5499 5488 5475 5464 5452 5442 5432 5424 5416 5409 5404 5398 5392 5386 5379 5372 5363 5355 5346 5338 5329 5321 5314 5306 5299 5293
5579 5577 5574 5571 5568 5565 5562 5558 5554 5550 5545 5539 5532 5525 5516 5507 5497 5486 5475 5463 5452 5442 5433 5425 5418 5411 5405 5400 5394 5388 5382 5375 5367 5359 5351 5342 5334 5326 5318 5311 5304 5298 5292
5574 5571 5569 5566 5563 5559 5556 5552 5547 5542 5536 5530 5522 5514 5505 5495 5484 5473 5463 5453 5443 5435 5427 5420 5413 5408 5402 5397 5391 5385 5378 5371 5363 5355 5347 5339 5331 5324 5317 5310 5304 5298 5292
5569 5566 5563 5560 5557 5553 5549 5544 5539 5534 5527 5520 5512 5503 5494 5483 5472 5462 5452 5444 5436 5428 5421 5415 5410 5405 5399 5394 5388 5382 5375 5367 5360 5352 5345 5337 5330 5323 5316 5310 5304 5298 5292
5563 5560 5557 5554 5550 5546 5542 5537 5531 5525 5518 5510 5502 5493 5483 5472 5462 5453 5444 5436 5429 5422 5416 5411 5406 5401 5396 5391 5385 5379 5372 5365 5358 5350 5343 5336 5329 5323 5316 5310 5304 5298 5293
5558 5554 5551 5547 5543 5539 5534 5529 5523 5516 5508 5500 5491 5481 5471 5461 5452 5444 5436 5429 5423 5417 5411 5407 5402 5398 5393 5387 5382 5376 5369 5363 5356 5349 5342 5335 5329 5322 5316 5310 5304 5299 5293
5551 5548 5544 5541 5536 5531 5526 5520 5514 5506 5498 5490 5480 5470 5460 5451 5443 5435 5429 5422 5417 5412 5407 5403 5399 5394 5389 5384 5379 5373 5367 5360 5354 5347 5341 5334 5328 5322 5316 5310 5305 5299 5294
5545 5541 5537 5533 5529 5524 5518 5512 5505 5497 5488 5479 5469 5459 5450 5442 5434 5428 5422 5417 5412 5408 5404 5400 5395 5391 5386 5381 5375 5370 5364 5358 5352 5346 5340 5334 5328 5322 5316 5311 5305 5300 5295
5538 5534 5530 5526 5521 5515 5509 5503 5495 5487 5478 5468 5458 5448 5440 5433 5426 5421 5416 5412 5408 5404 5400 5396 5392 5388 5383 5378 5373 5367 5362 5356 5351 5345 5339 5333 5328 5322 5317 5311 5306 5301 5296